EW7735 Weather Reports


time (UTC)temp
C
wind
direction
speed
KPH
gust
KPH
rain 1hr
cm
rain 24hr
cm
rain mn
cm
humidity
%
barometer
mb
20260505130108 18 173 1.6 22.5 0.00 0.00 0.00 84 1002.1
20260505124554 18 1 4.8 16.1 0.00 0.00 0.00 84 1002.3
20260505123025 18 1 3.2 16.1 0.00 0.00 0.00 84 1002.4
20260505121508 18 1 4.8 17.7 0.00 0.00 0.00 85 1002.0
20260505120058 18 1 1.6 14.5 0.00 0.00 0.00 86 1002.2
20260505114548 18 1 6.4 16.1 0.00 0.00 0.00 85 1002.0
20260505113024 18 1 1.6 16.1 0.00 0.00 0.00 85 1001.9
20260505111506 18 1 3.2 16.1 0.00 0.00 0.00 85 1002.0
20260505110128 18 1 3.2 14.5 0.00 0.00 0.00 85 1001.8
20260505101505 18 1 4.8 12.9 0.00 0.00 0.00 86 1001.0
20260505100023 18 1 9.7 19.3 0.00 0.00 0.00 86 1001.0
20260505094630 18 1 6.4 16.1 0.00 0.00 0.00 85 1000.9
20260505093107 18 1 4.8 19.3 0.00 0.00 0.00 84 1000.9
20260505091606 18 1 6.4 24.1 0.00 0.00 0.00 82 1000.9
20260505090010 18 1 3.2 20.9 0.00 0.00 0.00 81 1000.9
20260505084508 19 1 6.4 16.1 0.00 0.00 0.00 79 1000.9
20260505083012 20 1 4.8 17.7 0.00 0.00 0.00 78 1001.1
20260505081625 20 1 1.6 14.5 0.00 0.00 0.00 78 1001.0
20260505080056 20 1 6.4 14.5 0.00 0.00 0.00 77 1001.3
20260505074630 20 1 3.2 12.9 0.00 0.00 0.00 77 1001.3
20260505073012 19 1 4.8 12.9 0.00 0.00 0.00 77 1001.6
20260505071551 19 1 1.6 8.0 0.00 0.00 0.00 77 1002.0
20260505070015 20 1 4.8 16.1 0.00 0.00 0.00 76 1002.0
20260505064630 20 1 1.6 12.9 0.00 0.00 0.00 75 1002.1
20260505063111 20 1 4.8 8.0 0.00 0.00 0.00 73 1002.6
20260505061551 20 1 0.0 9.7 0.00 0.00 0.00 73 1002.4
20260505060113 20 1 1.6 4.8 0.00 0.00 0.00 73 1002.2
20260505054631 21 1 0.0 6.4 0.00 0.00 0.00 72 1001.9
20260505053112 21 1 4.8 20.9 0.00 0.00 0.00 71 1001.5
20260505051631 21 1 9.7 20.9 0.00 0.00 0.00 71 1001.4
20260505041634 21 1 8.0 20.9 0.00 0.00 0.00 69 1001.3
20260505040110 21 1 11.3 24.1 0.00 0.00 0.00 67 1001.6
20260505034502 21 1 9.7 22.5 0.00 0.00 0.00 67 1001.7
20260505033014 21 1 12.9 25.7 0.00 0.00 0.00 65 1002.1
20260505031555 21 1 11.3 27.4 0.00 0.00 0.00 64 1002.1
20260505030124 22 175 12.9 30.6 0.00 0.00 0.00 63 1002.3
20260505024607 22 164 9.7 25.7 0.00 0.00 0.00 62 1002.5
20260505023120 22 160 8.0 22.5 0.00 0.00 0.00 62 1002.8
20260505021633 22 158 6.4 30.6 0.00 0.00 0.00 61 1002.4
20260505020129 22 147 11.3 24.1 0.00 0.00 0.00 61 1002.3
20260505014624 23 162 12.9 22.5 0.00 0.00 0.00 61 1002.3
20260505013111 23 151 9.7 29.0 0.00 0.00 0.00 60 1002.3
20260505011550 23 177 8.0 30.6 0.00 0.00 0.00 60 1002.1
20260505010026 23 144 12.9 25.7 0.00 0.00 0.00 59 1002.1
20260505004556 24 145 12.9 25.7 0.00 0.00 0.00 59 1002.2
20260505003100 24 177 11.3 24.1 0.00 0.00 0.00 58 1002.3
20260505001624 24 182 11.3 25.7 0.00 0.00 0.00 58 1002.2
20260505000013 24 138 9.7 24.1 0.00 0.00 0.00 58 1002.6
20260504234552 25 224 11.3 29.0 0.00 0.00 0.00 58 1002.5
20260504233111 25 185 14.5 38.6 0.00 0.00 0.00 57 1002.6
20260504231625 25 145 14.5 29.0 0.00 0.00 0.00 56 1002.6
20260504230112 25 181 9.7 25.7 0.00 0.00 0.00 56 1002.5
20260504224508 25 141 6.4 22.5 0.00 0.00 0.00 57 1002.6
20260504223123 25 163 17.7 33.8 0.00 0.00 0.00 56 1002.5
20260504221503 25 183 9.7 25.7 0.00 0.00 0.00 55 1002.4
20260504220010 26 172 8.0 27.4 0.00 0.00 0.00 55 1002.4
20260504214542 25 197 9.7 25.7 0.00 0.00 0.00 55 1002.7
20260504213028 25 158 16.1 25.7 0.00 0.00 0.00 54 1002.7
20260504211538 26 151 9.7 30.6 0.00 0.00 0.00 55 1002.8
20260504204625 26 240 12.9 33.8 0.00 0.00 0.00 54 1002.9
20260504203106 25 156 12.9 41.8 0.00 0.00 0.00 54 1003.3
20260504201625 26 202 11.3 30.6 0.00 0.00 0.00 54 1003.6
20260504200105 26 170 12.9 37.0 0.00 0.00 0.00 54 1003.8
20260504194629 26 179 17.7 32.2 0.00 0.00 0.00 53 1004.0
20260504193113 26 192 16.1 32.2 0.00 0.00 0.00 53 1004.0
20260504191633 26 182 12.9 38.6 0.00 0.00 0.00 54 1004.0
20260504190115 26 149 16.1 38.6 0.00 0.00 0.00 55 1004.0
20260504184555 25 195 16.1 37.0 0.00 0.00 0.00 54 1004.3
20260504183100 26 191 19.3 37.0 0.00 0.00 0.00 54 1004.5
20260504181543 25 131 19.3 38.6 0.00 0.00 0.00 54 1004.7
20260504180025 25 203 16.1 35.4 0.00 0.00 0.00 54 1004.8
20260504174553 25 152 19.3 38.6 0.00 0.00 0.00 53 1005.2
20260504173009 25 176 17.7 35.4 0.00 0.00 0.00 53 1005.4
20260504171636 25 223 16.1 37.0 0.00 0.00 0.00 53 1005.7
20260504150106 21 180 11.3 32.2 0.00 0.00 0.00 57 1006.7